Vorticity
2 6 10 4 5 3 4 6 3 4 4 3 4 4 3 4 4 5 5 3 2 3 2 4 2 -5 1 3 5 4 13 9 12 15 7 4 -3 -3 4 9 2 2 6 4 0
2 2 5 8 7 3 4 3 4 6 4 4 4 3 3 4 4 5 1 3 4 1 1 2 3 7 6 -1 5 4 11 9 12 12 8 2 3 4 -2 9 -11 17 13 6 4
3 5 4 5 4 6 6 4 4 3 5 4 4 4 4 3 3 5 3 6 3 5 0 -0 2 2 8 -3 1 4 3 10 17 17 8 5 2 8 1 -2 4 16 11 11 3
5 5 4 5 6 6 6 6 6 -0 2 4 4 4 4 4 2 3 -1 3 4 5 5 2 -0 4 -2 2 4 2 7 2 3 18 14 11 3 6 5 9 13 -3 10 20 6
11 5 4 4 5 8 7 6 7 8 7 6 6 4 5 2 2 6 5 2 4 7 6 3 4 3 3 -3 3 3 2 7 5 0 18 17 11 5 0 6 8 -3 10 16 5
9 9 9 8 9 6 9 8 6 6 8 4 1 5 5 -6 -2 2 1 5 2 6 6 6 7 4 5 -2 5 -2 1 2 9 2 3 16 18 13 12 5 1 1 11 4 5
2 9 6 2 3 5 7 11 8 5 5 8 10 5 3 -3 9 2 6 -0 4 0 8 7 6 -1 0 12 10 11 4 2 3 4 0 10 6 11 9 4 3 3 3 10 1
-3 6 4 7 4 0 3 5 9 8 6 6 5 7 13 9 5 8 6 2 2 6 -2 5 1 6 2 -2 7 2 2 4 0 6 -1 2 4 7 11 10 8 7 3 5 5
6 3 6 7 5 8 3 3 7 7 15 1 34 1 6 6 9 5 -3 11 10 9 11 10 8 -5 -5 3 2 13 5 13 7 2 6 7 4 3 10 6 8 15 5 3 5
16 15 9 6 9 2 11 6 4 8 13 18 -25 11 5 3 3 6 10 1 -6 -10 -7 -9 -10 4 11 10 11 -0 1 20 9 3 0 -2 6 9 7 9 7 7 6 6 8
13 13 11 17 9 6 6 10 13 8 8 8 -21 0 -7 42 43 -5 8 11 10 13 11 7 1 4 3 -0 -4 11 8 3 21 2 4 -4 16 6 7 9 10 8 8 6 5
12 14 11 11 18 7 6 10 8 3 6 3 15 14 -6 -6 1 22 12 2 3 3 12 6 -6 12 9 6 6 3 13 6 12 14 -2 10 16 15 16 14 7 15 12 7 7
34 18 13 12 11 15 12 4 6 4 5 3 3 4 13 -8 -20 1 18 14 14 20 -3 -3 -4 9 5 5 6 3 8 13 5 9 11 -2 17 15 5 15 8 7 8 7 5
52 30 24 18 15 15 12 13 14 4 4 8 1 6 7 7 17 4 -6 1 -1 16 33 23 12 16 8 3 7 10 6 -5 2 6 10 3 8 19 8 1 12 6 6 6 11
23 43 47 25 18 16 10 6 11 17 17 7 1 8 2 3 6 6 8 -2 -1 -28 -24 13 7 32 16 8 9 4 10 5 4 8 6 15 6 12 16 2 3 14 5 9 8
11 15 28 52 28 23 17 15 7 6 15 15 12 5 7 4 3 4 2 5 4 15 17 -2 -10 -14 11 8 10 15 7 7 10 7 14 4 8 46 19 7 11 7 12 8 9
14 14 8 12 40 45 32 35 14 11 10 9 11 12 11 10 6 6 7 4 1 7 1 14 4 4 0 3 9 11 10 8 6 -4 -6 5 -5 -5 19 19 27 15 9 9 7
6 3 4 7 12 10 25 30 27 17 11 4 9 8 7 9 8 6 8 8 5 8 -1 2 14 6 2 10 11 3 10 5 3 -4 12 6 19 6 5 5 9 7 23 17 -2
2 5 5 8 4 6 9 5 42 16 23 13 8 14 10 12 7 -2 11 11 10 6 7 7 1 4 -3 3 -1 6 12 24 3 6 4 6 6 9 7 12 21 19 13 6 18
3 3 7 4 8 6 11 10 34 30 35 27 19 11 10 8 13 7 4 9 7 9 5 5 10 4 4 2 -3 -6 -10 17 16 18 6 3 7 4 5 3 1 7 9 18 5
7 4 6 5 8 4 2 7 19 32 32 32 31 26 10 14 7 5 6 13 12 6 13 1 11 11 5 8 7 17 2 -5 5 -1 15 3 -1 -4 -5 7 5 10 -1 -0 6
9 10 1 2 3 4 5 -2 6 19 14 21 28 33 26 13 4 16 -23 8 -1 6 9 9 1 4 12 23 1 21 6 8 11 -4 6 16 23 5 4 -5 1 12 10 0 10
13 9 7 1 3 3 4 5 -0 7 21 11 18 19 46 44 27 -5 16 22 38 50 16 -1 10 23 29 10 5 1 15 14 14 11 -7 4 -14 7 11 18 12 18 21 17 9
19 8 5 4 6 3 3 7 2 3 13 12 9 5 16 29 33 25 -17 -34 7 -7 33 18 22 36 1 14 56 20 10 15 15 17 7 -8 17 8 15 7 -1 1 4 16 6
26 8 7 6 6 6 2 5 5 1 11 11 9 12 -0 13 24 53 32 4 -7 -13 22 14 -3 -13 -7 24 -14 4 9 8 5 20 19 11 34 29 10 19 14 9 5 14 7
17 9 13 6 2 -2 6 -2 10 15 9 4 3 3 13 6 -5 17 55 53 7 23 24 -6 20 31 22 -2 -27 -19 -1 -7 21 4 19 28 23 -1 22 15 13 9 11 14 15
7 2 4 10 6 6 28 35 25 14 24 37 41 28 22 17 6 9 -2 43 65 -10 -19 -3 22 21 9 13 29 13 18 -5 -11 -0 10 7 2 3 10 17 9 18 17 12 10
Height
5743 5747 5751 5756 5760 5763 5767 5771 5775 5779 5783 5786 5789 5794 5796 5800 5802 5806 5807 5809 5811 5812 5814 5816 5817 5818 5818 5817 5818 5819 5822 5821 5821 5821 5820 5815 5815 5815 5818 5820 5823 5824 5826 5826 5829
5727 5732 5737 5741 5746 5750 5754 5759 5763 5766 5771 5775 5779 5782 5788 5791 5794 5798 5796 5801 5804 5806 5808 5810 5810 5812 5813 5812 5813 5815 5818 5816 5815 5815 5814 5810 5811 5812 5812 5816 5818 5821 5822 5824 5826
5710 5715 5721 5727 5731 5736 5741 5746 5751 5755 5759 5763 5767 5772 5776 5781 5786 5789 5789 5793 5796 5799 5801 5804 5803 5806 5808 5805 5808 5810 5814 5812 5812 5810 5809 5806 5808 5806 5807 5810 5812 5816 5817 5820 5824
5693 5698 5704 5710 5715 5721 5726 5732 5737 5743 5747 5751 5755 5760 5764 5770 5776 5779 5781 5783 5786 5790 5793 5795 5797 5799 5800 5800 5800 5803 5807 5808 5806 5805 5806 5806 5804 5804 5803 5809 5810 5811 5812 5817 5820
5672 5679 5685 5693 5698 5705 5710 5717 5722 5728 5733 5738 5743 5748 5753 5758 5769 5770 5772 5775 5779 5781 5784 5787 5789 5791 5792 5794 5794 5795 5800 5801 5802 5800 5799 5800 5802 5800 5800 5807 5806 5805 5806 5809 5815
5652 5660 5667 5674 5681 5687 5694 5700 5707 5713 5718 5723 5729 5734 5740 5749 5760 5753 5760 5766 5769 5772 5775 5779 5781 5783 5785 5787 5786 5788 5791 5795 5797 5795 5795 5794 5795 5793 5801 5801 5799 5799 5801 5801 5802
5633 5640 5647 5655 5662 5670 5677 5684 5691 5697 5703 5709 5714 5718 5726 5743 5746 5745 5750 5755 5758 5762 5765 5768 5771 5773 5775 5779 5778 5779 5781 5787 5792 5790 5789 5784 5783 5787 5797 5796 5792 5793 5792 5794 5795
5613 5620 5629 5636 5644 5652 5660 5667 5674 5682 5688 5695 5698 5702 5712 5725 5731 5735 5741 5743 5748 5751 5754 5756 5760 5761 5763 5769 5769 5770 5770 5776 5785 5784 5783 5777 5778 5784 5787 5785 5785 5787 5784 5785 5787
5589 5598 5608 5617 5625 5633 5641 5650 5658 5669 5674 5681 5679 5686 5698 5710 5717 5724 5724 5733 5733 5738 5742 5743 5748 5750 5753 5757 5760 5759 5761 5768 5776 5777 5773 5769 5767 5782 5778 5774 5776 5781 5779 5776 5779
5568 5577 5586 5595 5604 5613 5622 5632 5641 5651 5657 5663 5659 5666 5687 5695 5699 5709 5712 5716 5720 5723 5728 5732 5734 5736 5742 5743 5747 5758 5758 5760 5763 5772 5764 5760 5758 5767 5771 5766 5767 5772 5771 5771 5772
5548 5556 5564 5573 5583 5592 5603 5616 5624 5629 5635 5643 5646 5663 5671 5673 5681 5695 5699 5701 5705 5710 5713 5718 5721 5724 5731 5737 5741 5745 5747 5745 5750 5760 5753 5754 5749 5752 5762 5757 5759 5763 5763 5764 5767
5527 5536 5545 5552 5561 5569 5584 5595 5602 5609 5616 5625 5634 5645 5653 5661 5663 5673 5683 5688 5692 5698 5703 5707 5708 5721 5725 5727 5731 5733 5734 5732 5741 5749 5743 5741 5737 5742 5747 5751 5752 5755 5757 5759 5761
5508 5516 5525 5533 5537 5553 5566 5577 5580 5589 5595 5609 5619 5630 5645 5647 5651 5662 5670 5675 5680 5684 5687 5693 5707 5712 5712 5717 5719 5720 5722 5729 5732 5739 5735 5727 5722 5730 5736 5740 5743 5744 5747 5751 5756
5490 5497 5505 5512 5531 5534 5547 5551 5556 5568 5571 5589 5600 5615 5624 5634 5637 5645 5655 5662 5666 5672 5675 5679 5691 5691 5696 5700 5709 5708 5719 5722 5724 5726 5721 5730 5703 5717 5724 5727 5731 5735 5737 5744 5749
5483 5484 5490 5494 5507 5516 5525 5531 5541 5546 5538 5574 5586 5602 5609 5618 5637 5633 5639 5647 5652 5661 5665 5674 5678 5684 5686 5695 5700 5703 5710 5711 5714 5713 5711 5711 5700 5699 5713 5717 5721 5728 5730 5735 5739
5479 5478 5479 5482 5488 5498 5506 5512 5518 5521 5520 5545 5567 5584 5592 5607 5618 5616 5618 5628 5634 5642 5653 5662 5663 5669 5675 5680 5684 5690 5690 5697 5700 5702 5688 5695 5700 5690 5701 5712 5719 5722 5723 5726 5729
5472 5474 5475 5476 5480 5482 5485 5490 5496 5492 5514 5534 5555 5565 5579 5588 5595 5598 5603 5609 5620 5625 5639 5646 5649 5653 5664 5666 5672 5675 5677 5682 5683 5679 5673 5686 5696 5687 5697 5703 5708 5713 5714 5717 5721
5466 5466 5468 5470 5471 5472 5471 5473 5469 5491 5505 5526 5541 5547 5552 5569 5573 5583 5584 5591 5603 5618 5624 5628 5636 5646 5651 5653 5659 5661 5668 5672 5670 5669 5673 5674 5677 5686 5690 5694 5699 5702 5703 5706 5709
5456 5460 5463 5463 5464 5463 5462 5456 5463 5485 5498 5511 5526 5522 5532 5544 5558 5562 5566 5578 5593 5603 5610 5616 5622 5632 5634 5641 5645 5651 5650 5666 5661 5662 5663 5666 5666 5671 5677 5682 5689 5692 5694 5698 5701
5447 5451 5455 5454 5454 5453 5450 5449 5465 5475 5487 5491 5494 5501 5516 5531 5535 5539 5545 5564 5577 5586 5598 5600 5608 5617 5621 5627 5627 5634 5648 5641 5642 5649 5646 5649 5654 5658 5666 5676 5682 5686 5688 5690 5692
5436 5440 5445 5442 5442 5439 5442 5453 5461 5468 5469 5471 5480 5482 5496 5511 5517 5523 5529 5554 5566 5575 5580 5589 5590 5598 5600 5607 5617 5619 5622 5627 5631 5638 5641 5641 5643 5650 5654 5664 5671 5676 5681 5683 5683
5423 5428 5432 5431 5430 5433 5441 5450 5451 5455 5457 5457 5460 5464 5478 5496 5499 5504 5513 5533 5552 5562 5561 5574 5575 5576 5587 5593 5598 5603 5609 5615 5615 5628 5630 5633 5630 5640 5647 5652 5659 5665 5670 5672 5673
5410 5416 5418 5417 5420 5427 5434 5436 5439 5444 5447 5449 5452 5458 5472 5478 5477 5491 5504 5519 5527 5534 5545 5557 5548 5559 5567 5576 5579 5588 5599 5600 5606 5609 5616 5621 5625 5635 5635 5641 5645 5650 5659 5664 5664
5398 5402 5406 5404 5414 5416 5420 5424 5426 5430 5432 5435 5442 5439 5445 5450 5456 5469 5485 5501 5509 5522 5531 5533 5537 5540 5547 5563 5579 5567 5583 5588 5589 5589 5606 5603 5620 5615 5628 5631 5636 5641 5648 5653 5652
5384 5391 5394 5397 5399 5402 5405 5412 5412 5416 5421 5423 5428 5433 5441 5443 5447 5447 5463 5478 5493 5508 5513 5518 5513 5525 5534 5546 5547 5555 5562 5572 5571 5583 5582 5603 5603 5613 5614 5624 5624 5626 5631 5639 5640
5374 5379 5382 5386 5385 5385 5386 5392 5397 5404 5402 5409 5410 5424 5427 5427 5437 5446 5452 5462 5477 5494 5498 5503 5501 5508 5513 5529 5531 5534 5544 5550 5558 5568 5574 5586 5589 5604 5600 5601 5607 5613 5618 5623 5632
5369 5369 5367 5372 5371 5365 5372 5377 5378 5387 5383 5391 5397 5401 5400 5416 5434 5435 5430 5436 5451 5463 5468 5474 5481 5486 5491 5510 5516 5502 5520 5534 5544 5556 5563 5569 5587 5589 5593 5596 5597 5604 5609 5613 5620